Location: Duncanville
(32.6518°N, 96.9083°W)
Time: 10:47:38
(UTC+00:00)

Cosmos 1354 Rocket - Pass Details

Date: 11 February 2026
Orbit: 760 x 779 km, 74.0° (Epoch: 8 March)

Event Time Altitude Azimuth Distance (km) Brightness Sun altitude
Rises 12:29:35 0° 212° (SSW) 3,203 7.0 -10.0°
Reaches altitude 10° 12:32:03 10° 219° (SW) 2,282 6.2 -9.5°
Maximum altitude 12:36:57 42° 290° (WNW) 1,070 4.3 -8.5°
Drops below altitude 10° 12:41:53 10° 2° (N) 2,302 6.4 -7.4°
Sets 12:44:24 0° 9° (N) 3,234 7.2 -6.9°
